Tracking 28052 objects as of 25-Sep-2023
HD Live streaming from Space Station
objects crossing your sky now

COSMOS 1823 DEB

Track COSMOS 1823 DEB now!
10-day predictions


NORAD ID: 18755
Int'l Code: 1987-020AG
Perigee: 1,478.2 km
Apogee: 1,529.9 km
Inclination: 73.6 °
Period: 115.9 minutes
Semi major axis: 7875 km
RCS: 0.0433 m2 (small)
Launch date: February 20, 1987
Source: Commonwealth of Independent States (former USSR) (CIS)
Launch site: PLESETSK MISSILE AND SPACE COMPLEX (PKMTR)

Note: This is SATELLITE DEBRIS
Your satellite tracking list
Your tracking list is empty




NASA's NSSDC Master Catalog

Two Line Element Set (TLE):
1 18755U 87020AG  23267.59859023  .00000172  00000-0  13777-2 0  9991
2 18755  73.6413 329.2967 0032837 183.5057 296.2410 12.42289382621455
Source of the keplerian elements: AFSPC